Regional Weather Roundup
Issued by NWS

Home | Current Version | Previous Version | Text Only | Print | Product List | Glossary On
Versions: 1 2 3 4 5 6 7 8 9 10 11 12 13 14 15 16 17 18 19 20 21 22 23 24 25 26 27 28 29 30 31 32 33 34 35 36 37 38 39 40 41 42 43 44 45 46 47 48 49 50
000
ASUS45 KABQ 221810
RWRNM
NEW MEXICO REGIONAL WEATHER ROUNDUP
NATIONAL WEATHER SERVICE ALBUQUERQUE NM
1200 PM MDT FRI MAY 22 2015

NOTE: "FAIR" MEANS FEW OR NO CLOUDS BELOW 12,000 FEET AGL WITH NO
       SIGNIFICANT WEATHER OR OBSTRUCTIONS TO VISION.

      THIS PRODUCT IS RELEASED AS TWO VERSIONS.  ONE VERSION NEAR
      THE TOP OF THE HOUR CONTAINING PRELIMINARY DATA FROM ALBUQUERQUE
      AND OTHER STATIONS.  A FINAL VERSION WITH ADDITIONAL DATA IS
      ISSUED ABOUT 10 MINUTES AFTER THE HOUR.

NMZ501-503-504-510>518-221900-
NORTHWEST PLATEAU/NORTHCENTRAL MOUNTAINS

CITY           SKY/WX    TMP DP  RH WIND       PRES   REMARKS
FARMINGTON     MOSUNNY   65  29  25 SE13G18   29.99F
6HR MIN TEMP:  48; 6HR MAX TEMP:  66;

LOS ALAMOS     PTSUNNY   53  42  66 SE10      30.15S
SANTA FE       PTSUNNY   56  42  59 S6        30.12F
6HR MIN TEMP:  43; 6HR MAX TEMP:  58;

TAOS           PTSUNNY   50  37  62 NW3       30.16S
ANGEL FIRE     FAIR      49  39  68 SW8       30.18F

$$
NMZ402-403-502-505>509-221900-
WESTCENTRAL MOUNTAINS/SOUTHWEST MOUNTAINS

CITY           SKY/WX    TMP DP  RH WIND       PRES   REMARKS
GALLUP         PTSUNNY   64  26  23 S13G23    30.03F
6HR MIN TEMP:  39; 6HR MAX TEMP:  64;

GRANTS         MOSUNNY   60  41  48 SE14G24   30.09F
SILVER CITY      N/A     68  27  21 S16G28    30.10F

$$
NMZ407-409-411-412-221900-
SOUTHERN DESERTS

CITY           SKY/WX    TMP DP  RH WIND       PRES   REMARKS
LORDSBURG      FAIR      75  21  13 S9G23     30.00F
DEMING         SUNNY     76  33  21 S15G22    30.04F
6HR MIN TEMP:  46; 6HR MAX TEMP:  76;

LAS CRUCES     SUNNY     71  42  33 S3        30.07F
HOLLOMAN AFB   MOSUNNY   69  52  55 S2        30.05F
ALAMOGORDO     SUNNY     72  45  37 SW7       30.07F
T OR C         SUNNY     69  40  34 S12G18    30.05F
6HR MIN TEMP:  47; 6HR MAX TEMP:  69;


$$
NMZ519>523-221900-
CENTRAL VALLEYS/CENTRAL HIGHLANDS

CITY           SKY/WX    TMP DP  RH WIND       PRES   REMARKS
ALBUQUERQUE    MOSUNNY   61  45  55 VRB3      30.09F
6HR MIN TEMP:  48; 6HR MAX TEMP:  62;

DOUBLE EAGLE   PTSUNNY   59  46  63 S6        30.11
MORIARTY ARPT  FAIR      57  44  60 S10       30.15F
6HR MIN TEMP:  43; 6HR MAX TEMP:  57;

CLINES CORNERS SUNNY     56  42  59 S13G22    30.14F
6HR MIN TEMP:  40; 6HR MAX TEMP:  56;

BELEN          MOCLDY    65  45  49 S6        30.08F
6HR MIN TEMP:  49; 6HR MAX TEMP:  65;

SOCORRO        FAIR      65  48  53 S16       30.06F
6HR MIN TEMP:  46; 6HR MAX TEMP:  65;


$$
NMZ524>526-539-540-221900-
SOUTHCENTRAL MOUNTAINS

CITY           SKY/WX    TMP DP  RH WIND       PRES   REMARKS
RUIDOSO        SUNNY     61  45  55 SE12G18   30.18S

$$
NMZ527>531-221900-
NORTHEAST HIGHLANDS/NORTHEAST PLAINS

CITY           SKY/WX    TMP DP  RH WIND       PRES   REMARKS
LAS VEGAS      SUNNY     58  45  62 S18       30.13S
6HR MIN TEMP:  40; 6HR MAX TEMP:  58;

RATON          SUNNY     60  44  55 SW9       30.06F
6HR MIN TEMP:  40; 6HR MAX TEMP:  60;

CLAYTON        PTSUNNY   60  48  64 S21       30.07F
6HR MIN TEMP:  46; 6HR MAX TEMP:  60;


$$
NMZ532>537-221900-
EASTCENTRAL PLAINS

CITY           SKY/WX    TMP DP  RH WIND       PRES   REMARKS
TUCUMCARI      CLOUDY    61  50  67 S13       30.09F
6HR MIN TEMP:  49; 6HR MAX TEMP:  61;

CANNON AFB     NOT AVBL
CLOVIS AIRPORT CLOUDY    57  50  77 S9        30.14F

$$
NMZ028-029-538-221900-
SOUTHEAST PLAINS

CITY           SKY/WX    TMP DP  RH WIND       PRES   REMARKS
ROSWELL        CLOUDY    61  52  72 S8        30.10S
6HR MIN TEMP:  53; 6HR MAX TEMP:  61;

ARTESIA        CLOUDY    61  55  82 S8        30.11F
CARLSBAD       CLOUDY    64  56  75 VRB3      30.09F
6HR MIN TEMP:  55; 6HR MAX TEMP:  64;

HOBBS          CLOUDY    61  61 100 CALM      30.13F


$$



USA.gov is the U.S. government's official web portal to all federal, state and local government web resources and services.